Location: Lourdes
(43.1000°N, 0.0500°W)
Time: 04:04:45
(UTC+00:00)

Cosmos 1741 - Visible Passes

Search period start: 15 June 2021 00:00
Search period end: 25 June 2021 00:00
Orbit: 768 x 795 km, 74.0° (Epoch: 14 June)

Date Brightness Start Highest point End Pass type
(mag) Time Alt. Az. Time Alt. Az. Time Alt. Az.
15 Jun 7.4 02:31:10 10° N 02:35:51 31° ENE 02:40:29 10° ESE visible
16 Jun 8.0 01:58:36 10° N 02:02:36 21° NE 02:06:34 10° ESE visible
16 Jun 5.7 03:40:11 10° NNW 03:45:19 55° WSW 03:50:24 10° S visible
17 Jun 8.3 01:26:20 10° NNE 01:29:15 15° NE 01:32:10 10° E visible
17 Jun 5.5 03:07:04 10° NNW 03:12:21 85° WSW 03:17:36 10° SSE visible
18 Jun 6.0 02:34:06 10° NNW 02:39:19 63° ENE 02:44:31 10° SSE visible
19 Jun 6.8 02:01:14 10° N 02:06:13 41° ENE 02:11:09 10° SE visible
20 Jun 7.4 01:28:33 10° N 01:33:02 27° ENE 01:37:29 10° ESE visible
20 Jun 6.0 03:10:37 10° NW 03:15:29 40° WSW 03:20:21 10° S visible
21 Jun 7.9 00:56:03 10° N 00:59:46 19° NE 01:03:27 10° E visible
21 Jun 5.5 02:37:23 10° NNW 02:42:35 63° WSW 02:47:45 10° S visible
22 Jun 8.2 00:23:58 10° NNE 00:26:23 13° NE 00:28:48 10° ENE visible
22 Jun 5.5 02:04:20 10° NNW 02:09:36 84° ENE 02:14:31 12° SSE visible
23 Jun 6.1 01:31:23 10° NNW 01:36:33 54° ENE 01:41:04 13° SE visible
23 Jun 6.9 03:14:49 10° NW 03:18:26 19° W 03:21:33 12° SW visible
24 Jun 6.8 00:58:35 10° N 01:03:25 36° ENE 01:07:46 12° SE visible
24 Jun 6.4 02:41:08 10° NW 02:45:38 30° W 02:48:15 19° SW visible
